Weather History for KETH - April, 2014

Change the Weather History Date:

Wednesday, April 23, 2014

  Actual Average Record
Temperature  
Mean Temperature 46 °F -  
Max Temperature 51 °F 60 °F 91 °F (1990)
Min Temperature 42 °F 37 °F 19 °F (1956)
Degree Days  
Heating Degree Days 18    
Moisture  
Dew Point 39 °F    
Average Humidity 80    
Maximum Humidity 93    
Minimum Humidity 54    
Precipitation  
Precipitation 0.43 in - - ()
Sea Level Pressure  
Sea Level Pressure 29.88 in    
Wind  
Wind Speed 20 mph (ESE)    
Max Wind Speed 37 mph    
Max Gust Speed 43 mph    
Visibility 10 miles    
Events Rain , Thunderstorm    
Averages and records for this station are not official NWS values.
T = Trace of Precipitation, MM = Missing Value Source: NWS Daily Summary

Daily Weather History Graph

Daily Weather History Graph

Search for Another Location

Airport or City:

Trip Planner

Search our weather history database for the weather conditions in past years. The results will help you decide how hot, cold, wet, or windy it might be!

Date:

Astronomy

Apr. 23, 2014 Rise Set
Actual Time 6:26 AM CDT 8:23 PM CDT
Civil Twilight 5:54 AM CDT 8:55 PM CDT
Nautical Twilight 5:15 AM CDT 9:34 PM CDT
Astronomical Twilight 4:32 AM CDT 10:18 PM CDT
Moon 3:18 AM CDT (4/23) 2:15 PM CDT (4/23)
Length of Visible Light 15h 01m
Length of Day
13h 57m
Waning Crescent, 34% of the Moon is Illuminated
Apr 23
Waning Crescent
Apr 29
New
May 6
First Quarter
May 14
Full
May 21
Last Quarter

Hourly Weather History & Observations

Time (CDT) Temp. Windchill Dew Point Humidity Pressure Visibility Wind Dir Wind Speed Gust Speed Precip Events Conditions
12:15 AM 51.8 °F - 37.4 °F 58% 29.98 in 10.0 mi ESE 11.5 mph - N/A   Scattered Clouds
12:34 AM 51.8 °F - 37.4 °F 58% 29.98 in 10.0 mi ESE 12.7 mph - N/A   Overcast
12:55 AM 51.8 °F - 35.6 °F 54% 29.98 in 10.0 mi ESE 12.7 mph - N/A   Mostly Cloudy
1:14 AM 51.8 °F - 35.6 °F 54% 29.98 in 10.0 mi ESE 15.0 mph - N/A   Scattered Clouds
1:35 AM 51.8 °F - 35.6 °F 54% 29.98 in 10.0 mi SE 16.1 mph 21.9 mph N/A   Mostly Cloudy
1:55 AM 51.8 °F - 35.6 °F 54% 29.98 in 10.0 mi ESE 15.0 mph - N/A   Scattered Clouds
2:14 AM 51.8 °F - 35.6 °F 54% 29.98 in 10.0 mi ESE 17.3 mph - N/A   Scattered Clouds
2:34 AM 50.0 °F - 35.6 °F 58% 29.97 in 10.0 mi ESE 18.4 mph 24.2 mph N/A   Scattered Clouds
2:55 AM 50.0 °F - 35.6 °F 58% 29.97 in 10.0 mi SE 18.4 mph - N/A   Scattered Clouds
3:14 AM 50.0 °F - 35.6 °F 58% 29.97 in 10.0 mi SE 18.4 mph 21.9 mph N/A   Scattered Clouds
3:34 AM 48.2 °F - 37.4 °F 66% 29.98 in 10.0 mi SE 17.3 mph - N/A   Light Drizzle
3:54 AM 46.4 °F 39.5 °F 39.2 °F 76% 29.97 in 10.0 mi ESE 17.3 mph - N/A Rain Light Rain
4:14 AM 46.4 °F 39.5 °F 39.2 °F 76% 29.97 in 10.0 mi SE 17.3 mph - N/A Rain Light Rain
4:34 AM 46.4 °F 39.0 °F 39.2 °F 76% 29.97 in 10.0 mi SE 19.6 mph - 0.02 in Rain Rain
4:55 AM 46.4 °F 39.5 °F 39.2 °F 76% 29.97 in 10.0 mi SE 17.3 mph 24.2 mph 0.04 in Rain Light Rain
5:14 AM 44.6 °F 36.1 °F 39.2 °F 81% 29.96 in 10.0 mi SE 21.9 mph 29.9 mph N/A Rain Light Rain
5:34 AM 44.6 °F 36.9 °F 39.2 °F 81% 29.96 in 10.0 mi SE 18.4 mph 25.3 mph N/A Rain Light Rain
5:54 AM 44.6 °F 36.1 °F 39.2 °F 81% 29.95 in 10.0 mi SE 21.9 mph - N/A Rain Light Rain
6:16 AM 44.6 °F 36.1 °F 39.2 °F 81% 29.95 in 10.0 mi SE 21.9 mph 26.5 mph 0.06 in Rain Light Rain
6:35 AM 44.6 °F 35.9 °F 41.0 °F 87% 29.94 in 7.0 mi SE 23.0 mph 26.5 mph 0.12 in Rain Light Rain
6:54 AM 44.6 °F 36.6 °F 41.0 °F 87% 29.95 in 7.0 mi SE 19.6 mph 26.5 mph 0.19 in Rain Light Rain
7:15 AM 44.6 °F 36.4 °F 42.8 °F 93% 29.96 in 4.0 mi SE 20.7 mph - 0.05 in Rain Light Rain
7:34 AM 44.6 °F 36.1 °F 42.8 °F 93% 29.96 in 7.0 mi SE 21.9 mph - 0.05 in Rain Light Rain
7:54 AM 44.6 °F 36.1 °F 41.0 °F 87% 29.97 in 7.0 mi SE 21.9 mph 28.8 mph 0.07 in Rain Light Rain
8:14 AM 44.6 °F 35.7 °F 41.0 °F 87% 29.95 in 5.0 mi SE 24.2 mph 31.1 mph 0.10 in   Overcast
8:34 AM 44.6 °F 35.7 °F 41.0 °F 87% 29.95 in 10.0 mi ESE 24.2 mph 29.9 mph 0.12 in Rain Light Rain
8:55 AM 44.6 °F 35.5 °F 42.8 °F 93% 29.94 in 10.0 mi ESE 25.3 mph 32.2 mph 0.12 in Rain Light Rain
9:15 AM 44.6 °F 35.5 °F 41.0 °F 87% 29.93 in 10.0 mi ESE 25.3 mph 28.8 mph N/A   Overcast
9:34 AM 44.6 °F 35.5 °F 41.0 °F 87% 29.92 in 10.0 mi ESE 25.3 mph 31.1 mph N/A Rain Light Rain
9:55 AM 44.6 °F 36.1 °F 41.0 °F 87% 29.91 in 10.0 mi ESE 21.9 mph 29.9 mph N/A   Light Drizzle
10:14 AM 44.6 °F 35.7 °F 41.0 °F 87% 29.90 in 10.0 mi ESE 24.2 mph 29.9 mph N/A   Mostly Cloudy
10:34 AM 44.6 °F 35.3 °F 39.2 °F 81% 29.89 in 10.0 mi ESE 26.5 mph 34.5 mph N/A   Overcast
10:54 AM 44.6 °F 35.3 °F 41.0 °F 87% 29.89 in 10.0 mi ESE 26.5 mph 32.2 mph N/A   Mostly Cloudy
11:14 AM 44.6 °F 35.5 °F 41.0 °F 87% 29.90 in 10.0 mi SE 25.3 mph 31.1 mph N/A   Drizzle
11:34 AM 44.6 °F 35.7 °F 41.0 °F 87% 29.91 in 7.0 mi SE 24.2 mph 31.1 mph N/A Rain Light Rain
11:54 AM 44.6 °F 35.7 °F 41.0 °F 87% 29.91 in 7.0 mi SE 24.2 mph 29.9 mph N/A Rain Light Rain
12:14 PM 44.6 °F 35.9 °F 42.8 °F 93% 29.90 in 7.0 mi ESE 23.0 mph 31.1 mph N/A Rain Light Rain
12:34 PM 44.6 °F 35.3 °F 42.8 °F 93% 29.88 in 7.0 mi ESE 26.5 mph 32.2 mph N/A Rain Light Rain
12:54 PM 44.6 °F 35.3 °F 41.0 °F 87% 29.86 in 10.0 mi ESE 26.5 mph 34.5 mph N/A Rain Light Rain
1:15 PM 44.6 °F 35.1 °F 41.0 °F 87% 29.85 in 10.0 mi ESE 27.6 mph 35.7 mph N/A Rain Rain
1:34 PM 44.6 °F 34.7 °F 41.0 °F 87% 29.82 in 10.0 mi ESE 29.9 mph 38.0 mph 0.01 in   Light Drizzle
1:54 PM 44.6 °F 34.6 °F 41.0 °F 87% 29.82 in 10.0 mi ESE 31.1 mph 35.7 mph 0.01 in Rain Light Rain
2:14 PM 44.6 °F 34.4 °F 41.0 °F 87% 29.81 in 10.0 mi ESE 32.2 mph 39.1 mph N/A Rain Light Rain
2:34 PM 44.6 °F 34.2 °F 41.0 °F 87% 29.81 in 10.0 mi ESE 33.4 mph 39.1 mph N/A Rain Light Rain
2:54 PM 44.6 °F 33.8 °F 39.2 °F 81% 29.80 in 10.0 mi ESE 36.8 mph 40.3 mph N/A   Overcast
3:14 PM 44.6 °F 34.1 °F 39.2 °F 81% 29.79 in 10.0 mi ESE 34.5 mph 41.4 mph N/A Rain Light Rain
3:34 PM 44.6 °F 34.1 °F 39.2 °F 81% 29.79 in 10.0 mi ESE 34.5 mph 42.6 mph N/A Rain Rain
3:54 PM 44.6 °F 34.6 °F 39.2 °F 81% 29.80 in 10.0 mi ESE 31.1 mph 40.3 mph N/A Thunderstorm Thunderstorm
4:14 PM 44.6 °F 34.7 °F 39.2 °F 81% 29.81 in 10.0 mi ESE 29.9 mph 38.0 mph N/A   Overcast
4:34 PM 44.6 °F 35.5 °F 39.2 °F 81% 29.82 in 10.0 mi ESE 25.3 mph 32.2 mph N/A   Overcast
4:54 PM 44.6 °F 35.3 °F 39.2 °F 81% 29.81 in 10.0 mi ESE 26.5 mph 34.5 mph N/A Thunderstorm Unknown
5:14 PM 44.6 °F 34.9 °F 39.2 °F 81% 29.80 in 10.0 mi ESE 28.8 mph 35.7 mph N/A Rain Light Rain
5:34 PM 44.6 °F 34.7 °F 39.2 °F 81% 29.80 in 7.0 mi ESE 29.9 mph 38.0 mph N/A Thunderstorm Unknown
5:54 PM 44.6 °F 35.3 °F 39.2 °F 81% 29.80 in 10.0 mi ESE 26.5 mph 35.7 mph N/A   Overcast
6:15 PM 44.6 °F 35.9 °F 39.2 °F 81% 29.81 in 10.0 mi ESE 23.0 mph 31.1 mph N/A   Mostly Cloudy
6:34 PM 44.6 °F 35.5 °F 39.2 °F 81% 29.80 in 10.0 mi ESE 25.3 mph 32.2 mph N/A   Mostly Cloudy
6:54 PM 44.6 °F 35.1 °F 39.2 °F 81% 29.79 in 10.0 mi ESE 27.6 mph 35.7 mph N/A Thunderstorm Overcast
7:15 PM 44.6 °F 35.5 °F 39.2 °F 81% 29.79 in 10.0 mi ESE 25.3 mph 35.7 mph N/A   Mostly Cloudy
7:34 PM 44.6 °F 35.7 °F 39.2 °F 81% 29.80 in 10.0 mi ESE 24.2 mph 32.2 mph N/A   Overcast
7:54 PM 44.6 °F 35.3 °F 39.2 °F 81% 29.79 in 10.0 mi ESE 26.5 mph 32.2 mph N/A   Overcast
8:14 PM 44.6 °F 35.9 °F 39.2 °F 81% 29.80 in 10.0 mi ESE 23.0 mph 33.4 mph N/A   Overcast
8:34 PM 44.6 °F 35.5 °F 39.2 °F 81% 29.78 in 10.0 mi ESE 25.3 mph 32.2 mph N/A Rain Light Rain
8:54 PM 42.8 °F 33.1 °F 39.2 °F 87% 29.79 in 10.0 mi ESE 25.3 mph 31.1 mph N/A   Light Drizzle
9:14 PM 42.8 °F 33.8 °F 39.2 °F 87% 29.81 in 10.0 mi ESE 21.9 mph 28.8 mph N/A   Overcast
9:34 PM 42.8 °F 34.0 °F 39.2 °F 87% 29.81 in 10.0 mi ESE 20.7 mph 29.9 mph N/A   Overcast
9:55 PM 42.8 °F 33.8 °F 39.2 °F 87% 29.80 in 10.0 mi ESE 21.9 mph 31.1 mph N/A   Overcast
10:15 PM 42.8 °F 33.5 °F 39.2 °F 87% 29.79 in 10.0 mi ESE 23.0 mph 29.9 mph N/A   Overcast
10:34 PM 42.8 °F 33.5 °F 39.2 °F 87% 29.81 in 10.0 mi ESE 23.0 mph 27.6 mph N/A   Overcast
10:55 PM 42.8 °F 34.0 °F 39.2 °F 87% 29.81 in 10.0 mi ESE 20.7 mph 27.6 mph N/A   Overcast
11:14 PM 42.8 °F 33.8 °F 39.2 °F 87% 29.81 in 10.0 mi ESE 21.9 mph - N/A   Overcast
11:34 PM 42.8 °F 34.8 °F 39.2 °F 87% 29.80 in 10.0 mi ESE 17.3 mph - N/A   Overcast
11:54 PM 42.8 °F 35.1 °F 39.2 °F 87% 29.81 in 10.0 mi ESE 16.1 mph - N/A   Overcast